Location: ?ejkovice
(49.0137°N, 14.3821°E)
Time: 17:09:41
(UTC+00:00)

Cosmos 1242 Rocket - Pass Details

Date: 23 May 2024
Orbit: 323 x 338 km, 81.1° (Epoch: 13 June)

Event Time Altitude Azimuth Distance (km) Brightness Sun altitude
Exits shadow 01:14:34 31° 188° (S) 675 2.8 -14.1°
Maximum altitude 01:15:50 86° 103° (ESE) 371 1.9 -14.0°
Drops below altitude 10° 01:18:48 10° 13° (NNE) 1,366 6.0 -13.7°
Sets 01:20:48 0° 13° (NNE) 2,221 7.3 -13.5°
